Content
SEND FEEDBACK

Daily
Averages
Monthly
Summary
United Kingdom

TYNEMOUTH, ENGLAND


Home > Europe > United Kingdom > England
Elevation: 108 feet     Latitude: 55 01N     Longitude: 001 25W

WEATHER
 
SELECT A DAY
Number of Records: 289,275;   Date Range: 7/1/96 - 10/19/14
 
SHARE

PRINT THIS DATA

[ ← Previous Day ]
WEATHER ALMANAC - OCTOBER 18, 2013
[ Next Day → ]
[ °C ]   °F
Weather ElementAverageHighLow
Temperature51.6 °F53.6 °F (6:20 pm)50 °F (12:50 am)
Dewpoint51.2 °F53.6 °F (6:20 pm)48.2 °F (12:50 am)
Humidity98.5 %100 % (2:20 am)94 % (12:50 am)
Barometer29.93 in30.01 in (6:20 am)29.74 in (11:50 pm)
Wind Speed6.4 mph10.4 mph (9:20 pm)
Weather ElementAverage
Visibility4.2 mi
Wind DirectionESE (116.2 °)

Weather ElementTotal
Precipitation---
Heating Degree Days13.2 (Base 65)
Growing Degree Days1.8 (Base 50)
Averaged from 45 records on October 18, 2013
WEATHER CONDITIONS BREAKOUT
WIND DIRECTION BREAKOUT
WEATHER BY HOUR - OCTOBER 18, 2013
[ °C ]   °F
Local TimeTemperatureDewpointHumidityBarometerVisibilityWind DirectionWind SpeedGust SpeedPrecipitationEventsConditions
12:50 AM50.0 °F48.2 °F94 %29.98 in6.2 miWest (270°)3.5 mphMostly Cloudy
1:20 AM50.0 °F48.2 °F94 %29.98 in4.3 miWest (280°)3.5 mphMostly Cloudy
1:50 AM50.0 °F48.2 °F94 %29.98 in4.3 miWest (280°)3.5 mphMostly Cloudy
2:20 AM50.0 °F50.0 °F100 %29.98 in4.3 miWest (270°)3.5 mphMostly Cloudy
2:50 AM50.0 °F50.0 °F100 %29.98 in6.2 miNE (50°)4.6 mphMostly Cloudy
3:50 AM50.0 °F50.0 °F100 %29.98 in6.2 miENE (70°)5.8 mphScattered Clouds
4:20 AM50.0 °F50.0 °F100 %29.98 in6.2 miEast (80°)4.6 mphMostly Cloudy
4:50 AM50.0 °F50.0 °F100 %29.98 in4.3 miVariable2.3 mphMostly Cloudy
5:20 AM50.0 °F50.0 °F100 %29.98 in4.3 miVariable3.5 mphMostly Cloudy
5:50 AM50.0 °F50.0 °F100 %29.98 in4.3 miSE (130°)4.6 mphMostly Cloudy
6:20 AM50.0 °F50.0 °F100 %30.01 in6.2 miVariable3.5 mphMostly Cloudy
6:50 AM50.0 °F50.0 °F100 %29.98 in6.2 miVariable3.5 mphMostly Cloudy
7:20 AM50.0 °F50.0 °F100 %30.01 in5.0 miVariable3.5 mphMostly Cloudy
8:20 AM50.0 °F50.0 °F100 %30.01 in5.0 miESE (110°)4.6 mphMostly Cloudy
8:50 AM50.0 °F50.0 °F100 %30.01 in5.0 miESE (120°)5.8 mphLight Drizzle
9:20 AM50.0 °F50.0 °F100 %30.01 in4.3 miSE (130°)4.6 mphLight Drizzle
9:50 AM50.0 °F50.0 °F100 %30.01 in4.3 miESE (110°)4.6 mphMostly Cloudy
10:20 AM51.8 °F50.0 °F94 %30.01 in4.3 miESE (110°)6.9 mphMostly Cloudy
10:50 AM51.8 °F50.0 °F94 %30.01 in4.3 miESE (120°)8.1 mphMostly Cloudy
11:20 AM51.8 °F50.0 °F94 %30.01 in4.3 miESE (110°)9.2 mphMostly Cloudy
11:50 AM51.8 °F50.0 °F94 %29.98 in5.6 miESE (120°)6.9 mphMostly Cloudy
12:20 PM51.8 °F50.0 °F94 %29.98 in5.6 miESE (120°)6.9 mphMostly Cloudy
12:50 PM51.8 °F50.0 °F94 %29.98 in5.6 miESE (120°)6.9 mphMostly Cloudy
1:20 PM51.8 °F50.0 °F94 %29.98 in5.6 miSE (130°)9.2 mphMostly Cloudy
1:50 PM51.8 °F50.0 °F94 %29.95 in5.6 miESE (120°)5.8 mphRainLight Rain
2:20 PM51.8 °F51.8 °F100 %29.95 in3.1 miSE (130°)5.8 mphLight Drizzle
2:50 PM51.8 °F51.8 °F100 %29.95 in3.1 miESE (110°)5.8 mphLight Drizzle
3:20 PM51.8 °F51.8 °F100 %29.92 in3.7 miVariable8.1 mphLight Drizzle
3:50 PM51.8 °F51.8 °F100 %29.92 in3.7 miESE (120°)8.1 mphLight Drizzle
4:20 PM51.8 °F51.8 °F100 %29.89 in3.7 miESE (120°)8.1 mphRainLight Rain
4:50 PM51.8 °F51.8 °F100 %29.89 in3.7 miESE (120°)6.9 mphRainLight Rain
5:20 PM51.8 °F51.8 °F100 %29.86 in2.2 miESE (120°)9.2 mphLight Drizzle
5:50 PM51.8 °F51.8 °F100 %29.86 in2.2 miSE (130°)8.1 mphLight Drizzle
6:20 PM53.6 °F53.6 °F100 %29.86 in2.2 miSE (130°)9.2 mphLight Drizzle
6:50 PM53.6 °F53.6 °F100 %29.83 in2.2 miESE (120°)8.1 mphLight Drizzle
7:20 PM53.6 °F53.6 °F100 %29.83 in2.2 miSE (130°)6.9 mphLight Drizzle
7:50 PM53.6 °F53.6 °F100 %29.83 in2.5 miSE (130°)8.1 mphLight Drizzle
8:20 PM53.6 °F53.6 °F100 %29.83 in2.5 miESE (120°)8.1 mphLight Drizzle
8:50 PM53.6 °F53.6 °F100 %29.80 in2.5 miESE (120°)8.1 mphLight Drizzle
9:20 PM53.6 °F53.6 °F100 %29.80 in2.5 miSE (130°)10.4 mphLight Drizzle
9:50 PM53.6 °F53.6 °F100 %29.80 in4.3 miSE (130°)8.1 mphMostly Cloudy
10:20 PM53.6 °F53.6 °F100 %29.80 in4.3 miSE (130°)6.9 mphMostly Cloudy
10:50 PM53.6 °F53.6 °F100 %29.77 in4.3 miSE (140°)8.1 mphMostly Cloudy
11:20 PM53.6 °F53.6 °F100 %29.77 in4.3 miSE (130°)8.1 mphMostly Cloudy
11:50 PM53.6 °F53.6 °F100 %29.74 in3.7 miESE (120°)6.9 mphMostly Cloudy
Hourly data recorded from EGNT, located miles away from Tynemouth, England







STORIES FROM OUR PARTNERS